When you browse on this site, cookies collect data to enhance your experience and personalize the content and advertising you see.
Visit our Privacy Policy to learn more. By continuing to use the site, you agree to this use of cookies and data.
  • In Hungary
  • List of Countries
  • For 7 days
  • Water Temperature
  • Satellite Maps
  • Weather Map
  • News
  • Weather Widgets
  • user-avatar
    Login

    Hourly Weather Stratford

    Today, 18 December, Tuesday

    Time Temperature Precipitation Wind Pressure Humidity
    00:00 -2°C° 0 mm 8 mps 755 mmHg 66%
    01:00 -1°C° 0 mm 7 mps 754 mmHg 65%
    02:00 -2°C° 0 mm 8 mps 755 mmHg 63%
    03:00 -5°C° 0 mm 9 mps 756 mmHg 61%
    04:00 -6°C° 0 mm 9 mps 757 mmHg 59%
    05:00 -6°C° 0 mm 9 mps 758 mmHg 58%
    06:00 -8°C° 0 mm 9 mps 758 mmHg 57%
    07:00 -7°C° 0 mm 8 mps 759 mmHg 58%
    08:00 -7°C° 0 mm 8 mps 759 mmHg 55%
    09:00 -6°C° 0 mm 8 mps 760 mmHg 52%
    10:00 -6°C° 0 mm 9 mps 761 mmHg 48%
    11:00 -5°C° 0 mm 8 mps 761 mmHg 46%
    12:00 -4°C° 0 mm 7 mps 761 mmHg 43%
    13:00 -3°C° 0 mm 7 mps 761 mmHg 40%
    14:00 -3°C° 0 mm 7 mps 761 mmHg 42%
    15:00 -3°C° 0 mm 6 mps 762 mmHg 44%
    16:00 -3°C° 0 mm 6 mps 762 mmHg 45%
    17:00 -4°C° 0 mm 6 mps 763 mmHg 48%
    18:00 -4°C° 0 mm 6 mps 763 mmHg 51%
    19:00 -5°C° 0 mm 6 mps 764 mmHg 54%
    20:00 -5°C° 0 mm 5 mps 764 mmHg 54%
    21:00 -5°C° 0 mm 5 mps 764 mmHg 54%
    22:00 -5°C° 0 mm 5 mps 764 mmHg 53%
    23:00 -4°C° 0 mm 4 mps 764 mmHg 53%

    Tomorrow, 19 December, Wednesday

    Time Temperature Precipitation Wind Pressure Humidity
    00:00 -4°C° 0 mm 4 mps 764 mmHg 52%
    01:00 -4°C° 0 mm 3 mps 764 mmHg 52%
    02:00 -4°C° 0 mm 3 mps 764 mmHg 53%
    03:00 -4°C° 0 mm 3 mps 764 mmHg 53%
    04:00 -3°C° 0 mm 2 mps 764 mmHg 54%
    05:00 -4°C° 0 mm 2 mps 765 mmHg 56%
    06:00 -4°C° 0 mm 2 mps 765 mmHg 57%
    07:00 -4°C° 0 mm 2 mps 765 mmHg 58%
    08:00 -2°C° 0 mm 2 mps 765 mmHg 53%
    09:00 -1°C° 0 mm 2 mps 765 mmHg 48%
    10:00 +1°C° 0 mm 2 mps 765 mmHg 43%
    11:00 +2°C° 0 mm 2 mps 764 mmHg 40%
    12:00 +2°C° 0 mm 3 mps 764 mmHg 37%
    13:00 +4°C° 0 mm 3 mps 763 mmHg 34%
    14:00 +3°C° 0 mm 3 mps 763 mmHg 38%
    15:00 +2°C° 0 mm 3 mps 763 mmHg 42%
    16:00 +2°C° 0 mm 3 mps 763 mmHg 46%
    17:00 +2°C° 0 mm 3 mps 763 mmHg 51%
    18:00 +1°C° 0 mm 3 mps 763 mmHg 56%
    19:00 +1°C° 0 mm 3 mps 763 mmHg 61%
    20:00 +1°C° 0 mm 3 mps 764 mmHg 66%
    21:00 +1°C° 0 mm 3 mps 764 mmHg 71%
    22:00 +1°C° 0 mm 3 mps 764 mmHg 75%
    23:00 +1°C° 0 mm 3 mps 764 mmHg 78%

    Day after tomorrow, 20 December, Thursday

    Time Temperature Precipitation Wind Pressure Humidity
    00:00 +1°C° 0 mm 3 mps 763 mmHg 80%
    01:00 +1°C° 0 mm 3 mps 763 mmHg 83%
    02:00 +1°C° 0 mm 3 mps 763 mmHg 83%
    03:00 +1°C° 0 mm 3 mps 763 mmHg 84%
    04:00 +1°C° 0 mm 3 mps 763 mmHg 85%
    05:00 +2°C° 0 mm 2 mps 763 mmHg 85%
    06:00 +1°C° 0 mm 2 mps 764 mmHg 86%
    07:00 +1°C° 0 mm 2 mps 764 mmHg 87%
    08:00 +3°C° 0 mm 2 mps 764 mmHg 81%
    09:00 +4°C° 0 mm 2 mps 764 mmHg 76%
    10:00 +5°C° 0 mm 2 mps 764 mmHg 70%
    11:00 +6°C° 0 mm 2 mps 764 mmHg 69%
    12:00 +7°C° 0 mm 2 mps 763 mmHg 68%
    13:00 +8°C° 0 mm 2 mps 763 mmHg 66%
    14:00 +8°C° 0 mm 2 mps 762 mmHg 72%
    15:00 +7°C° 0 mm 2 mps 762 mmHg 78%
    16:00 +7°C° 0 mm 1 mps 762 mmHg 84%
    17:00 +7°C° 0.1 mm 1 mps 762 mmHg 86%
    18:00 +7°C° 0.1 mm 1 mps 762 mmHg 89%
    19:00 +7°C° 0.1 mm 1 mps 762 mmHg 91%
    20:00 +7°C° 0.3 mm 1 mps 761 mmHg 92%
    21:00 +6°C° 0.3 mm 2 mps 761 mmHg 93%
    22:00 +6°C° 0.3 mm 2 mps 760 mmHg 94%
    23:00 +7°C° 1 mm 3 mps 759 mmHg 94%

    21 December, Friday

    Time Temperature Precipitation Wind Pressure Humidity
    00:00 +6°C° 1 mm 4 mps 758 mmHg 95%
    01:00 +7°C° 1 mm 4 mps 757 mmHg 96%
    02:00 +8°C° 2.9 mm 5 mps 755 mmHg 96%
    03:00 +9°C° 2.9 mm 6 mps 754 mmHg 95%
    04:00 +10°C° 2.9 mm 7 mps 752 mmHg 95%
    05:00 +10°C° 7 mm 7 mps 751 mmHg 95%
    06:00 +11°C° 7 mm 7 mps 749 mmHg 95%
    07:00 +12°C° 7 mm 7 mps 748 mmHg 95%
    08:00 +13°C° 1.9 mm 6 mps 748 mmHg 96%
    09:00 +13°C° 1.9 mm 5 mps 748 mmHg 97%
    10:00 +13°C° 1.9 mm 3 mps 747 mmHg 98%
    11:00 +13°C° 0.2 mm 3 mps 747 mmHg 98%
    12:00 +13°C° 0.2 mm 3 mps 746 mmHg 98%
    13:00 +14°C° 0.2 mm 3 mps 746 mmHg 98%
    14:00 +13°C° 0.1 mm 3 mps 745 mmHg 98%
    15:00 +13°C° 0.1 mm 3 mps 745 mmHg 98%
    16:00 +13°C° 0.1 mm 3 mps 745 mmHg 98%
    17:00 +13°C° 0.6 mm 3 mps 744 mmHg 98%
    18:00 +14°C° 0.6 mm 4 mps 744 mmHg 97%
    19:00 +14°C° 0.6 mm 4 mps 744 mmHg 97%
    20:00 +14°C° 0.3 mm 4 mps 744 mmHg 97%
    21:00 +13°C° 0.3 mm 4 mps 744 mmHg 96%
    22:00 +13°C° 0.3 mm 4 mps 744 mmHg 96%
    23:00 +13°C° 0 mm 4 mps 743 mmHg 95%

    22 December, Saturday

    Time Temperature Precipitation Wind Pressure Humidity
    00:00 +12°C° 0 mm 3 mps 743 mmHg 95%
    01:00 +12°C° 0 mm 3 mps 743 mmHg 94%
    02:00 +11°C° 0.4 mm 3 mps 742 mmHg 95%
    03:00 +11°C° 0.4 mm 3 mps 742 mmHg 96%
    04:00 +10°C° 0.4 mm 3 mps 741 mmHg 96%
    05:00 +10°C° 0.9 mm 3 mps 742 mmHg 96%
    06:00 +10°C° 0.9 mm 4 mps 742 mmHg 95%
    07:00 +10°C° 0.9 mm 4 mps 742 mmHg 94%
    08:00 +9°C° 0.3 mm 5 mps 743 mmHg 91%
    09:00 +9°C° 0.3 mm 5 mps 743 mmHg 88%
    10:00 +9°C° 0.3 mm 6 mps 744 mmHg 85%
    11:00 +9°C° 0 mm 6 mps 744 mmHg 80%
    12:00 +9°C° 0 mm 7 mps 745 mmHg 75%
    13:00 +8°C° 0 mm 7 mps 745 mmHg 70%
    14:00 +8°C° 0 mm 7 mps 746 mmHg 69%
    15:00 +6°C° 0 mm 7 mps 747 mmHg 69%
    16:00 +5°C° 0 mm 7 mps 748 mmHg 69%
    17:00 +4°C° 0 mm 7 mps 750 mmHg 69%
    18:00 +4°C° 0 mm 7 mps 751 mmHg 70%
    19:00 +3°C° 0 mm 7 mps 752 mmHg 70%
    20:00 +3°C° 0 mm 7 mps 753 mmHg 70%
    21:00 +2°C° 0 mm 7 mps 754 mmHg 70%
    22:00 +2°C° 0 mm 7 mps 754 mmHg 70%
    23:00 +2°C° 0 mm 7 mps 755 mmHg 70%

    23 December, Sunday

    Time Temperature Precipitation Wind Pressure Humidity
    00:00 0°C° 0 mm 7 mps 755 mmHg 70%
    01:00 +1°C° 0 mm 6 mps 756 mmHg 70%
    02:00 -1°C° 0 mm 6 mps 756 mmHg 70%
    03:00 -1°C° 0 mm 6 mps 757 mmHg 70%
    04:00 -1°C° 0 mm 6 mps 757 mmHg 70%
    05:00 -1°C° 0 mm 6 mps 758 mmHg 70%
    06:00 -1°C° 0 mm 6 mps 758 mmHg 70%
    07:00 -1°C° 0 mm 6 mps 759 mmHg 70%
    08:00 +1°C° 0 mm 6 mps 759 mmHg 68%
    09:00 +2°C° 0 mm 6 mps 759 mmHg 65%
    10:00 +3°C° 0 mm 6 mps 760 mmHg 62%
    11:00 +4°C° 0 mm 6 mps 759 mmHg 59%
    12:00 +5°C° 0 mm 6 mps 759 mmHg 57%
    13:00 +5°C° 0 mm 6 mps 759 mmHg 55%
    14:00 +6°C° 0 mm 5 mps 759 mmHg 57%
    15:00 +5°C° 0 mm 5 mps 759 mmHg 59%
    16:00 +5°C° 0 mm 4 mps 760 mmHg 61%
    17:00 +4°C° 0 mm 4 mps 760 mmHg 63%
    18:00 +4°C° 0 mm 4 mps 761 mmHg 65%
    19:00 +2°C° 0 mm 5 mps 761 mmHg 66%
    20:00 +1°C° 0 mm 5 mps 762 mmHg 67%
    21:00 +1°C° 0 mm 5 mps 762 mmHg 68%
    22:00 +1°C° 0 mm 5 mps 762 mmHg 69%
    23:00 0°C° 0 mm 5 mps 762 mmHg 69%
    Show more